Time,TemperatureF,DewpointF,PressureIn,WindDirection,WindDirectionDegrees,WindSpeedMPH,WindSpeedGustMPH,Humidity,HourlyPrecipIn,Conditions,Clouds,dailyrainin,SolarRadiationWatts/m^2,SoftwareType,DateUTC
2013-03-29 00:00:00,45.7,34.5,30.05,NW,308,7.0,8.0,65,0.00,,,0.00,0.0,meteohub,2013-03-29 04:00:00,
2013-03-29 00:02:00,45.7,34.5,30.05,NW,320,7.0,8.0,65,0.00,,,0.00,0.0,meteohub,2013-03-29 04:02:00,
2013-03-29 00:07:00,45.5,34.3,30.05,WNW,298,7.0,8.0,65,0.00,,,0.00,0.0,meteohub,2013-03-29 04:07:00,
2013-03-29 00:12:00,45.5,34.3,30.05,NNW,346,1.0,8.0,65,0.00,,,0.00,0.0,meteohub,2013-03-29 04:12:00,
2013-03-29 00:17:00,45.5,34.3,30.05,NW,325,1.0,9.0,65,0.00,,,0.00,0.0,meteohub,2013-03-29 04:17:00,
2013-03-29 00:22:00,45.3,34.3,30.05,WNW,299,5.0,11.0,65,0.00,,,0.00,0.0,meteohub,2013-03-29 04:22:00,
2013-03-29 00:27:00,45.3,34.7,30.05,NW,317,4.0,11.0,66,0.00,,,0.00,0.0,meteohub,2013-03-29 04:27:00,
2013-03-29 00:33:00,45.3,34.7,30.05,NNW,335,4.0,11.0,66,0.00,,,0.00,0.0,meteohub,2013-03-29 04:33:00,
2013-03-29 00:38:00,45.3,34.7,30.05,NNW,332,1.0,10.0,66,0.00,,,0.00,0.0,meteohub,2013-03-29 04:38:00,
2013-03-29 00:43:00,45.3,34.7,30.05,NW,317,5.0,8.0,66,0.00,,,0.00,0.0,meteohub,2013-03-29 04:43:00,
2013-03-29 00:48:00,45.1,34.5,30.06,WNW,296,7.0,7.0,66,0.00,,,0.00,0.0,meteohub,2013-03-29 04:48:00,
2013-03-29 00:53:00,45.1,34.5,30.06,NNW,327,4.0,7.0,66,0.00,,,0.00,0.0,meteohub,2013-03-29 04:53:00,
2013-03-29 00:58:00,45.1,34.5,30.05,NW,323,5.0,9.0,66,0.00,,,0.00,0.0,meteohub,2013-03-29 04:58:00,
2013-03-29 01:03:00,45.1,34.5,30.05,NNW,341,5.0,9.0,66,0.00,,,0.00,0.0,meteohub,2013-03-29 05:03:00,
2013-03-29 01:08:00,45.1,34.5,30.06,NNW,345,4.0,8.0,66,0.00,,,0.00,0.0,meteohub,2013-03-29 05:08:00,
2013-03-29 01:13:00,45.1,34.5,30.06,NW,323,4.0,9.0,66,0.00,,,0.00,0.0,meteohub,2013-03-29 05:13:00,
2013-03-29 01:19:00,45.1,34.5,30.06,NW,310,5.0,10.0,66,0.00,,,0.00,0.0,meteohub,2013-03-29 05:19:00,
2013-03-29 01:24:00,45.3,34.3,30.06,NNW,341,6.0,10.0,65,0.00,,,0.00,0.0,meteohub,2013-03-29 05:24:00,
2013-03-29 01:29:00,45.3,34.3,30.06,NNW,342,4.0,11.0,65,0.00,,,0.00,0.0,meteohub,2013-03-29 05:29:00,
2013-03-29 01:34:00,45.3,34.3,30.05,WNW,302,5.0,11.0,65,0.00,,,0.00,0.0,meteohub,2013-03-29 05:34:00,
2013-03-29 01:39:00,45.1,34.2,30.06,NW,324,4.0,10.0,65,0.00,,,0.00,0.0,meteohub,2013-03-29 05:39:00,
2013-03-29 01:44:00,45.1,34.2,30.06,NW,325,5.0,10.0,65,0.00,,,0.00,0.0,meteohub,2013-03-29 05:44:00,
2013-03-29 01:49:00,45.1,34.2,30.06,NW,317,7.0,10.0,65,0.00,,,0.00,0.0,meteohub,2013-03-29 05:49:00,
2013-03-29 01:54:00,45.1,34.2,30.06,NW,321,6.0,11.0,65,0.00,,,0.00,0.0,meteohub,2013-03-29 05:54:00,
2013-03-29 01:59:00,45.3,34.7,30.05,North,355,5.0,15.0,66,0.00,,,0.00,0.0,meteohub,2013-03-29 05:59:00,
2013-03-29 02:05:00,45.1,34.5,30.05,NNW,329,5.0,15.0,66,0.00,,,0.00,0.0,meteohub,2013-03-29 06:05:00,
2013-03-29 02:10:00,45.1,34.2,30.06,NNW,345,5.0,13.0,65,0.00,,,0.00,0.0,meteohub,2013-03-29 06:10:00,
2013-03-29 02:15:00,45.3,34.3,30.06,NW,320,5.0,12.0,65,0.00,,,0.00,0.0,meteohub,2013-03-29 06:15:00,
2013-03-29 02:20:00,45.1,34.5,30.06,NNE,13,9.0,12.0,66,0.00,,,0.00,0.0,meteohub,2013-03-29 06:20:00,
2013-03-29 02:25:00,45.1,34.5,30.06,NNW,333,4.0,12.0,66,0.00,,,0.00,0.0,meteohub,2013-03-29 06:25:00,
2013-03-29 02:30:00,45.1,34.5,30.06,North,350,7.0,11.0,66,0.00,,,0.00,0.0,meteohub,2013-03-29 06:30:00,
2013-03-29 02:35:00,45.0,34.3,30.06,NNW,346,5.0,10.0,66,0.00,,,0.00,0.0,meteohub,2013-03-29 06:35:00,
2013-03-29 02:40:00,45.0,34.3,30.06,North,11,4.0,14.0,66,0.00,,,0.00,0.0,meteohub,2013-03-29 06:40:00,
2013-03-29 02:45:00,45.0,34.7,30.06,NNE,17,11.0,17.0,67,0.00,,,0.00,0.0,meteohub,2013-03-29 06:45:00,
2013-03-29 02:50:00,44.8,34.2,30.06,NNW,340,8.0,17.0,66,0.00,,,0.00,0.0,meteohub,2013-03-29 06:50:00,
2013-03-29 02:55:00,44.8,34.2,30.06,NNE,13,10.0,17.0,66,0.00,,,0.00,0.0,meteohub,2013-03-29 06:55:00,
2013-03-29 03:01:00,44.8,34.2,30.06,North,0,6.0,18.0,66,0.00,,,0.00,0.0,meteohub,2013-03-29 07:01:00,
2013-03-29 03:06:00,44.8,34.2,30.06,North,351,9.0,18.0,66,0.00,,,0.00,0.0,meteohub,2013-03-29 07:06:00,
2013-03-29 03:11:00,44.4,33.8,30.06,NNW,327,10.0,19.0,66,0.00,,,0.00,0.0,meteohub,2013-03-29 07:11:00,
2013-03-29 03:16:00,44.4,33.8,30.06,NW,325,7.0,19.0,66,0.00,,,0.00,0.0,meteohub,2013-03-29 07:16:00,
2013-03-29 03:21:00,44.2,33.6,30.06,NE,42,6.0,15.0,66,0.00,,,0.00,0.0,meteohub,2013-03-29 07:21:00,
2013-03-29 03:26:00,44.1,33.4,30.06,NNE,13,7.0,17.0,66,0.00,,,0.00,0.0,meteohub,2013-03-29 07:26:00,
2013-03-29 03:31:00,44.1,33.8,30.06,North,355,5.0,17.0,67,0.00,,,0.00,0.0,meteohub,2013-03-29 07:31:00,
2013-03-29 03:37:00,43.9,33.6,30.06,NNW,336,9.0,17.0,67,0.00,,,0.00,0.0,meteohub,2013-03-29 07:37:00,
2013-03-29 03:42:00,43.5,33.3,30.06,NNE,16,4.0,12.0,67,0.00,,,0.00,0.0,meteohub,2013-03-29 07:42:00,
2013-03-29 03:47:00,43.3,33.1,30.06,North,355,8.0,12.0,67,0.00,,,0.00,0.0,meteohub,2013-03-29 07:47:00,
2013-03-29 03:52:00,43.3,33.1,30.06,North,0,10.0,12.0,67,0.00,,,0.00,0.0,meteohub,2013-03-29 07:52:00,
2013-03-29 03:57:00,43.3,33.1,30.06,NNW,344,9.0,13.0,67,0.00,,,0.00,0.0,meteohub,2013-03-29 07:57:00,
2013-03-29 04:02:00,43.2,32.9,30.06,North,9,7.0,13.0,67,0.00,,,0.00,0.0,meteohub,2013-03-29 08:02:00,
2013-03-29 04:07:00,43.2,32.9,30.06,North,355,5.0,13.0,67,0.00,,,0.00,0.0,meteohub,2013-03-29 08:07:00,
2013-03-29 04:12:00,43.2,32.9,30.06,NNW,347,7.0,16.0,67,0.00,,,0.00,0.0,meteohub,2013-03-29 08:12:00,
2013-03-29 04:17:00,43.2,32.9,30.06,NW,322,6.0,16.0,67,0.00,,,0.00,0.0,meteohub,2013-03-29 08:17:00,
2013-03-29 04:22:00,43.2,32.5,30.06,NNE,28,6.0,11.0,66,0.00,,,0.00,0.0,meteohub,2013-03-29 08:22:00,
2013-03-29 04:27:00,43.2,32.5,30.06,NNW,348,4.0,10.0,66,0.00,,,0.00,0.0,meteohub,2013-03-29 08:27:00,
2013-03-29 04:32:00,43.0,32.4,30.06,North,0,6.0,11.0,66,0.00,,,0.00,0.0,meteohub,2013-03-29 08:32:00,
2013-03-29 04:37:00,43.0,32.4,30.06,NE,40,3.0,11.0,66,0.00,,,0.00,0.0,meteohub,2013-03-29 08:37:00,
2013-03-29 04:42:00,43.0,32.4,30.06,North,0,4.0,11.0,66,0.00,,,0.00,0.0,meteohub,2013-03-29 08:42:00,
2013-03-29 04:47:00,43.0,32.4,30.06,NNW,330,5.0,11.0,66,0.00,,,0.00,0.0,meteohub,2013-03-29 08:47:00,
2013-03-29 04:53:00,42.8,32.2,30.06,NNW,343,4.0,11.0,66,0.00,,,0.00,0.0,meteohub,2013-03-29 08:53:00,
2013-03-29 04:58:00,42.6,32.0,30.06,North,9,4.0,11.0,66,0.00,,,0.00,0.0,meteohub,2013-03-29 08:58:00,
2013-03-29 05:03:00,42.6,32.0,30.06,NNW,348,7.0,10.0,66,0.00,,,0.00,0.0,meteohub,2013-03-29 09:03:00,
2013-03-29 05:08:00,42.6,32.0,30.06,North,5,7.0,11.0,66,0.00,,,0.00,0.0,meteohub,2013-03-29 09:08:00,
2013-03-29 05:13:00,42.6,32.0,30.06,NNW,347,8.0,12.0,66,0.00,,,0.00,0.0,meteohub,2013-03-29 09:13:00,
2013-03-29 05:18:00,42.4,31.8,30.06,North,355,2.0,12.0,66,0.00,,,0.00,0.0,meteohub,2013-03-29 09:18:00,
2013-03-29 05:23:00,42.3,31.6,30.06,NNW,333,4.0,12.0,66,0.00,,,0.00,0.0,meteohub,2013-03-29 09:23:00,
2013-03-29 05:28:00,42.3,31.6,30.06,NW,304,5.0,10.0,66,0.00,,,0.00,0.0,meteohub,2013-03-29 09:28:00,
2013-03-29 05:33:00,42.1,31.5,30.06,North,355,5.0,9.0,66,0.00,,,0.00,0.0,meteohub,2013-03-29 09:33:00,
2013-03-29 05:38:00,41.9,31.5,30.06,NW,305,5.0,9.0,66,0.00,,,0.00,0.0,meteohub,2013-03-29 09:38:00,
2013-03-29 05:44:00,41.7,31.6,30.06,NNW,343,5.0,9.0,67,0.00,,,0.00,0.0,meteohub,2013-03-29 09:44:00,
2013-03-29 05:49:00,41.5,31.5,30.06,NNW,336,4.0,9.0,67,0.00,,,0.00,0.0,meteohub,2013-03-29 09:49:00,
2013-03-29 05:54:00,41.4,31.3,30.06,NNW,340,4.0,9.0,67,0.00,,,0.00,0.0,meteohub,2013-03-29 09:54:00,
2013-03-29 05:59:00,41.2,31.1,30.06,NW,317,2.0,8.0,67,0.00,,,0.00,0.0,meteohub,2013-03-29 09:59:00,
2013-03-29 06:04:00,41.0,31.3,30.06,NW,315,6.0,8.0,68,0.00,,,0.00,0.0,meteohub,2013-03-29 10:04:00,
2013-03-29 06:09:00,40.8,31.1,30.06,NW,320,0.0,8.0,68,0.00,,,0.00,0.0,meteohub,2013-03-29 10:09:00,
2013-03-29 06:14:00,40.6,30.9,30.06,NNW,336,1.0,8.0,68,0.00,,,0.00,0.0,meteohub,2013-03-29 10:14:00,
2013-03-29 06:19:00,40.6,31.3,30.07,NW,306,2.0,8.0,69,0.00,,,0.00,0.0,meteohub,2013-03-29 10:19:00,
2013-03-29 06:24:00,40.5,30.7,30.06,NW,306,0.0,8.0,68,0.00,,,0.00,0.0,meteohub,2013-03-29 10:24:00,
2013-03-29 06:29:00,39.9,30.6,30.07,NW,306,0.0,7.0,69,0.00,,,0.00,0.0,meteohub,2013-03-29 10:29:00,
2013-03-29 06:34:00,39.7,30.7,30.07,NW,306,2.0,6.0,70,0.00,,,0.00,0.0,meteohub,2013-03-29 10:34:00,
2013-03-29 06:40:00,39.4,30.4,30.07,NW,306,0.0,5.0,70,0.00,,,0.00,5.0,meteohub,2013-03-29 10:40:00,
2013-03-29 06:45:00,38.7,30.0,30.07,NW,306,1.0,5.0,71,0.00,,,0.00,7.0,meteohub,2013-03-29 10:45:00,
2013-03-29 06:50:00,38.5,30.2,30.07,WNW,301,2.0,5.0,72,0.00,,,0.00,9.0,meteohub,2013-03-29 10:50:00,
2013-03-29 06:55:00,38.1,29.8,30.08,WNW,300,2.0,4.0,72,0.00,,,0.00,12.0,meteohub,2013-03-29 10:55:00,
2013-03-29 07:00:00,37.8,29.8,30.08,WNW,292,4.0,4.0,73,0.00,,,0.00,12.0,meteohub,2013-03-29 11:00:00,
2013-03-29 07:05:00,37.9,30.4,30.08,SW,229,3.0,4.0,74,0.00,,,0.00,16.0,meteohub,2013-03-29 11:05:00,
2013-03-29 07:10:00,38.1,30.6,30.08,SW,229,0.0,5.0,74,0.00,,,0.00,18.0,meteohub,2013-03-29 11:10:00,
2013-03-29 07:15:00,38.3,30.7,30.08,WSW,254,3.0,5.0,74,0.00,,,0.00,37.0,meteohub,2013-03-29 11:15:00,
2013-03-29 07:20:00,39.0,31.1,30.08,West,277,4.0,8.0,73,0.00,,,0.00,49.0,meteohub,2013-03-29 11:20:00,
2013-03-29 07:25:00,39.7,31.5,30.09,West,279,2.0,8.0,72,0.00,,,0.00,63.0,meteohub,2013-03-29 11:25:00,
2013-03-29 07:31:00,40.3,31.6,30.09,WNW,288,5.0,8.0,71,0.00,,,0.00,81.0,meteohub,2013-03-29 11:31:00,
2013-03-29 07:36:00,40.6,31.6,30.09,WNW,282,0.0,7.0,70,0.00,,,0.00,98.0,meteohub,2013-03-29 11:36:00,
2013-03-29 07:41:00,41.0,31.6,30.09,West,281,0.0,6.0,69,0.00,,,0.00,116.0,meteohub,2013-03-29 11:41:00,
2013-03-29 07:46:00,41.4,31.6,30.09,WSW,249,5.0,6.0,68,0.00,,,0.00,137.0,meteohub,2013-03-29 11:46:00,
2013-03-29 07:51:00,41.7,31.6,30.09,WNW,302,6.0,7.0,67,0.00,,,0.00,167.0,meteohub,2013-03-29 11:51:00,
2013-03-29 07:57:00,42.1,32.0,30.09,NW,316,5.0,9.0,67,0.00,,,0.00,185.0,meteohub,2013-03-29 11:57:00,
2013-03-29 08:02:00,42.4,31.8,30.09,NNW,333,4.0,9.0,66,0.00,,,0.00,204.0,meteohub,2013-03-29 12:02:00,
2013-03-29 08:07:00,42.8,32.2,30.09,NNW,332,7.0,11.0,66,0.00,,,0.00,218.0,meteohub,2013-03-29 12:07:00,
2013-03-29 08:12:00,43.2,32.2,30.09,NNW,328,7.0,11.0,65,0.00,,,0.00,244.0,meteohub,2013-03-29 12:12:00,
2013-03-29 08:17:00,43.5,32.2,30.09,West,278,6.0,11.0,64,0.00,,,0.00,260.0,meteohub,2013-03-29 12:17:00,
2013-03-29 08:22:00,43.7,32.4,30.09,NNW,328,6.0,11.0,64,0.00,,,0.00,278.0,meteohub,2013-03-29 12:22:00,
2013-03-29 08:27:00,44.2,32.4,30.09,North,355,7.0,12.0,63,0.00,,,0.00,294.0,meteohub,2013-03-29 12:27:00,
2013-03-29 08:32:00,44.6,32.4,30.09,NNW,331,9.0,13.0,62,0.00,,,0.00,308.0,meteohub,2013-03-29 12:32:00,
2013-03-29 08:37:00,45.1,32.5,30.09,WNW,298,5.0,13.0,61,0.00,,,0.00,320.0,meteohub,2013-03-29 12:37:00,
2013-03-29 08:42:00,45.5,32.9,30.09,NNW,338,9.0,14.0,61,0.00,,,0.00,339.0,meteohub,2013-03-29 12:42:00,
2013-03-29 08:48:00,46.0,32.9,30.09,NNW,335,10.0,15.0,60,0.00,,,0.00,360.0,meteohub,2013-03-29 12:48:00,
2013-03-29 08:53:00,46.6,33.1,30.09,NNW,329,7.0,15.0,59,0.00,,,0.00,373.0,meteohub,2013-03-29 12:53:00,
2013-03-29 08:58:00,46.9,32.9,30.09,NW,318,11.0,15.0,58,0.00,,,0.00,390.0,meteohub,2013-03-29 12:58:00,
2013-03-29 09:03:00,47.5,33.1,30.09,NNW,340,7.0,14.0,57,0.00,,,0.00,415.0,meteohub,2013-03-29 13:03:00,
2013-03-29 09:08:00,47.7,33.3,30.09,WNW,294,8.0,15.0,57,0.00,,,0.00,418.0,meteohub,2013-03-29 13:08:00,
2013-03-29 09:13:00,47.8,32.9,30.09,WNW,291,8.0,15.0,56,0.00,,,0.00,439.0,meteohub,2013-03-29 13:13:00,
2013-03-29 09:18:00,48.6,33.6,30.09,NNW,346,7.0,15.0,56,0.00,,,0.00,462.0,meteohub,2013-03-29 13:18:00,
2013-03-29 09:23:00,48.9,33.1,30.09,NW,323,4.0,14.0,54,0.00,,,0.00,469.0,meteohub,2013-03-29 13:23:00,
2013-03-29 09:28:00,49.6,33.6,30.08,NW,321,4.0,14.0,54,0.00,,,0.00,489.0,meteohub,2013-03-29 13:28:00,
2013-03-29 09:34:00,50.0,33.6,30.08,NW,308,7.0,13.0,53,0.00,,,0.00,497.0,meteohub,2013-03-29 13:34:00,
2013-03-29 09:39:00,50.5,34.0,30.08,NW,321,11.0,14.0,53,0.00,,,0.00,517.0,meteohub,2013-03-29 13:39:00,
2013-03-29 09:44:00,51.3,34.2,30.08,NNW,342,7.0,16.0,52,0.00,,,0.00,527.0,meteohub,2013-03-29 13:44:00,
2013-03-29 09:49:00,51.6,34.2,30.08,North,11,6.0,16.0,51,0.00,,,0.00,543.0,meteohub,2013-03-29 13:49:00,
2013-03-29 09:54:00,51.8,34.2,30.09,NW,306,9.0,16.0,51,0.00,,,0.00,548.0,meteohub,2013-03-29 13:54:00,
2013-03-29 09:59:00,52.2,34.2,30.08,NW,311,11.0,15.0,50,0.00,,,0.00,589.0,meteohub,2013-03-29 13:59:00,
2013-03-29 10:04:00,51.6,33.6,30.08,WNW,300,7.0,15.0,50,0.00,,,0.00,582.0,meteohub,2013-03-29 14:04:00,
2013-03-29 10:09:00,51.6,33.6,30.08,NW,314,11.0,15.0,50,0.00,,,0.00,592.0,meteohub,2013-03-29 14:09:00,
2013-03-29 10:14:00,52.7,34.2,30.08,WNW,299,8.0,15.0,49,0.00,,,0.00,610.0,meteohub,2013-03-29 14:14:00,
2013-03-29 10:20:00,53.2,34.0,30.08,NE,46,5.0,14.0,48,0.00,,,0.00,622.0,meteohub,2013-03-29 14:20:00,
2013-03-29 10:25:00,53.6,33.8,30.08,WNW,297,9.0,17.0,47,0.00,,,0.00,635.0,meteohub,2013-03-29 14:25:00,
2013-03-29 10:30:00,54.0,34.2,30.08,North,9,5.0,17.0,47,0.00,,,0.00,645.0,meteohub,2013-03-29 14:30:00,
2013-03-29 10:35:00,54.1,33.8,30.08,NNW,342,6.0,17.0,46,0.00,,,0.00,659.0,meteohub,2013-03-29 14:35:00,
2013-03-29 10:40:00,54.9,34.5,30.08,WNW,294,4.0,17.0,46,0.00,,,0.00,668.0,meteohub,2013-03-29 14:40:00,
2013-03-29 10:45:00,55.8,34.7,30.08,NNW,345,6.0,15.0,45,0.00,,,0.00,677.0,meteohub,2013-03-29 14:45:00,
2013-03-29 10:50:00,56.1,34.5,30.08,North,355,10.0,15.0,44,0.00,,,0.00,691.0,meteohub,2013-03-29 14:50:00,
2013-03-29 10:55:00,56.3,34.7,30.08,NNE,31,9.0,14.0,44,0.00,,,0.00,701.0,meteohub,2013-03-29 14:55:00,
2013-03-29 11:00:00,56.5,34.3,30.08,WNW,297,9.0,16.0,43,0.00,,,0.00,710.0,meteohub,2013-03-29 15:00:00,
2013-03-29 11:06:00,56.5,33.6,30.08,WNW,298,6.0,18.0,42,0.00,,,0.00,721.0,meteohub,2013-03-29 15:06:00,
2013-03-29 11:11:00,56.8,34.5,30.08,North,5,5.0,18.0,43,0.00,,,0.00,729.0,meteohub,2013-03-29 15:11:00,
2013-03-29 11:16:00,57.6,34.0,30.08,North,0,10.0,18.0,41,0.00,,,0.00,744.0,meteohub,2013-03-29 15:16:00,
2013-03-29 11:21:00,58.1,34.5,30.08,NW,306,7.0,16.0,41,0.00,,,0.00,744.0,meteohub,2013-03-29 15:21:00,
2013-03-29 11:27:00,57.6,34.0,30.07,WNW,296,5.0,19.0,41,0.00,,,0.00,754.0,meteohub,2013-03-29 15:27:00,
2013-03-29 11:32:00,58.1,34.0,30.07,NW,309,7.0,19.0,40,0.00,,,0.00,759.0,meteohub,2013-03-29 15:32:00,
2013-03-29 11:37:00,58.6,34.3,30.07,NW,319,6.0,19.0,40,0.00,,,0.00,772.0,meteohub,2013-03-29 15:37:00,
2013-03-29 11:42:00,57.7,33.6,30.07,WSW,252,1.0,17.0,40,0.00,,,0.00,779.0,meteohub,2013-03-29 15:42:00,
2013-03-29 11:47:00,56.7,32.5,30.06,North,0,3.0,17.0,40,0.00,,,0.00,788.0,meteohub,2013-03-29 15:47:00,
2013-03-29 11:52:00,58.3,34.0,30.06,WSW,258,7.0,12.0,40,0.00,,,0.00,798.0,meteohub,2013-03-29 15:52:00,
2013-03-29 11:57:00,57.6,34.0,30.06,NW,320,9.0,12.0,41,0.00,,,0.00,817.0,meteohub,2013-03-29 15:57:00,
2013-03-29 12:02:00,59.4,33.8,30.06,NNW,335,8.0,16.0,38,0.00,,,0.00,817.0,meteohub,2013-03-29 16:02:00,
2013-03-29 12:08:00,59.9,34.2,30.06,NNW,340,2.0,16.0,38,0.00,,,0.00,828.0,meteohub,2013-03-29 16:08:00,
2013-03-29 12:13:00,60.3,33.8,30.06,WNW,292,5.0,16.0,37,0.00,,,0.00,849.0,meteohub,2013-03-29 16:13:00,
2013-03-29 12:18:00,58.3,32.2,30.06,West,275,9.0,15.0,37,0.00,,,0.00,888.0,meteohub,2013-03-29 16:18:00,
2013-03-29 12:23:00,60.8,33.6,30.06,WNW,292,9.0,15.0,36,0.00,,,0.00,1030.0,meteohub,2013-03-29 16:23:00,
2013-03-29 12:28:00,59.5,32.5,30.05,NE,36,2.0,16.0,36,0.00,,,0.00,192.0,meteohub,2013-03-29 16:28:00,
2013-03-29 12:33:00,57.7,31.6,30.05,SW,234,4.0,16.0,37,0.00,,,0.00,204.0,meteohub,2013-03-29 16:33:00,
2013-03-29 12:38:00,57.6,32.2,30.05,NNW,332,6.0,16.0,38,0.00,,,0.00,986.0,meteohub,2013-03-29 16:38:00,
2013-03-29 12:43:00,60.6,32.2,30.05,WNW,287,8.0,11.0,34,0.00,,,0.00,990.0,meteohub,2013-03-29 16:43:00,
2013-03-29 12:48:00,59.2,30.7,30.04,SSW,194,0.0,19.0,34,0.00,,,0.00,960.0,meteohub,2013-03-29 16:48:00,
2013-03-29 12:53:00,58.8,32.0,30.04,WNW,294,4.0,19.0,36,0.00,,,0.00,1048.0,meteohub,2013-03-29 16:53:00,
2013-03-29 12:58:00,59.9,32.2,30.04,North,355,2.0,19.0,35,0.00,,,0.00,274.0,meteohub,2013-03-29 16:58:00,
2013-03-29 13:04:00,59.9,31.5,30.04,North,0,8.0,12.0,34,0.00,,,0.00,318.0,meteohub,2013-03-29 17:04:00,
2013-03-29 13:09:00,58.6,29.7,30.04,WSW,254,1.0,13.0,33,0.00,,,0.00,271.0,meteohub,2013-03-29 17:09:00,
2013-03-29 13:14:00,55.0,32.9,30.04,SW,215,5.0,13.0,43,0.00,,,0.00,970.0,meteohub,2013-03-29 17:14:00,
2013-03-29 13:19:00,54.7,33.3,30.04,West,270,6.0,14.0,44,0.00,,,0.00,1034.0,meteohub,2013-03-29 17:19:00,
2013-03-29 13:24:00,54.0,34.2,30.04,SSW,202,4.0,15.0,47,0.00,,,0.00,297.0,meteohub,2013-03-29 17:24:00,
2013-03-29 13:29:00,53.2,34.0,30.04,South,175,11.0,15.0,48,0.00,,,0.00,979.0,meteohub,2013-03-29 17:29:00,
2013-03-29 13:34:00,53.1,34.3,30.04,SW,214,4.0,17.0,49,0.00,,,0.00,1016.0,meteohub,2013-03-29 17:34:00,
2013-03-29 13:39:00,52.3,33.8,30.04,South,182,8.0,17.0,49,0.00,,,0.00,1065.0,meteohub,2013-03-29 17:39:00,
2013-03-29 13:44:00,52.5,34.0,30.03,WSW,252,8.0,19.0,49,0.00,,,0.00,1011.0,meteohub,2013-03-29 17:44:00,
2013-03-29 13:49:00,54.1,34.9,30.03,SW,228,12.0,19.0,48,0.00,,,0.00,967.0,meteohub,2013-03-29 17:49:00,
2013-03-29 13:54:00,53.4,33.6,30.03,SW,230,10.0,19.0,47,0.00,,,0.00,993.0,meteohub,2013-03-29 17:54:00,
2013-03-29 14:00:00,52.7,33.6,30.03,WSW,242,18.0,18.0,48,0.00,,,0.00,918.0,meteohub,2013-03-29 18:00:00,
2013-03-29 14:05:00,53.1,33.4,30.03,SW,229,15.0,19.0,47,0.00,,,0.00,828.0,meteohub,2013-03-29 18:05:00,
2013-03-29 14:10:00,53.1,32.9,30.03,South,187,8.0,19.0,46,0.00,,,0.00,847.0,meteohub,2013-03-29 18:10:00,
2013-03-29 14:15:00,53.2,34.0,30.03,SSE,152,4.0,19.0,48,0.00,,,0.00,267.0,meteohub,2013-03-29 18:15:00,
2013-03-29 14:20:00,52.9,33.3,30.02,WSW,238,12.0,18.0,47,0.00,,,0.00,297.0,meteohub,2013-03-29 18:20:00,
2013-03-29 14:25:00,53.1,33.4,30.02,SSE,168,5.0,18.0,47,0.00,,,0.00,828.0,meteohub,2013-03-29 18:25:00,
2013-03-29 14:30:00,53.8,34.0,30.02,WSW,249,6.0,18.0,47,0.00,,,0.00,793.0,meteohub,2013-03-29 18:30:00,
2013-03-29 14:36:00,54.0,34.2,30.02,SW,234,5.0,18.0,47,0.00,,,0.00,761.0,meteohub,2013-03-29 18:36:00,
2013-03-29 14:41:00,53.4,32.5,30.01,SSW,196,11.0,16.0,45,0.00,,,0.00,759.0,meteohub,2013-03-29 18:41:00,
2013-03-29 14:46:00,52.5,32.9,30.01,West,277,12.0,22.0,47,0.00,,,0.00,758.0,meteohub,2013-03-29 18:46:00,
2013-03-29 14:51:00,52.5,32.9,30.01,SW,227,15.0,22.0,47,0.00,,,0.00,752.0,meteohub,2013-03-29 18:51:00,
2013-03-29 14:57:00,52.9,32.7,30.01,SW,217,17.0,22.0,46,0.00,,,0.00,735.0,meteohub,2013-03-29 18:57:00,
2013-03-29 15:02:00,53.1,33.4,30.01,South,185,8.0,21.0,47,0.00,,,0.00,722.0,meteohub,2013-03-29 19:02:00,
2013-03-29 15:07:00,53.6,32.2,30.01,SW,230,13.0,21.0,44,0.00,,,0.00,712.0,meteohub,2013-03-29 19:07:00,
2013-03-29 15:12:00,52.9,32.2,30.01,SW,233,11.0,20.0,45,0.00,,,0.00,707.0,meteohub,2013-03-29 19:12:00,
2013-03-29 15:17:00,54.0,32.5,30.00,South,190,14.0,20.0,44,0.00,,,0.00,686.0,meteohub,2013-03-29 19:17:00,
2013-03-29 15:22:00,53.4,31.5,30.00,WSW,244,7.0,20.0,43,0.00,,,0.00,671.0,meteohub,2013-03-29 19:22:00,
2013-03-29 15:27:00,54.3,31.6,30.00,SSW,212,6.0,20.0,42,0.00,,,0.00,663.0,meteohub,2013-03-29 19:27:00,
2013-03-29 15:32:00,55.6,32.9,30.01,West,267,5.0,23.0,42,0.00,,,0.00,652.0,meteohub,2013-03-29 19:32:00,
2013-03-29 15:37:00,54.9,31.6,30.01,SSW,205,5.0,23.0,41,0.00,,,0.00,645.0,meteohub,2013-03-29 19:37:00,
2013-03-29 15:42:00,54.9,32.2,30.00,West,278,7.0,23.0,42,0.00,,,0.00,633.0,meteohub,2013-03-29 19:42:00,
2013-03-29 15:47:00,54.3,31.1,30.00,WSW,254,15.0,17.0,41,0.00,,,0.00,612.0,meteohub,2013-03-29 19:47:00,
2013-03-29 15:52:00,54.3,31.6,30.00,SW,229,13.0,20.0,42,0.00,,,0.00,601.0,meteohub,2013-03-29 19:52:00,
2013-03-29 15:57:00,54.3,31.6,30.00,SW,221,9.0,21.0,42,0.00,,,0.00,599.0,meteohub,2013-03-29 19:57:00,
2013-03-29 16:03:00,53.8,31.3,30.00,WSW,254,13.0,21.0,42,0.00,,,0.00,589.0,meteohub,2013-03-29 20:03:00,
2013-03-29 16:08:00,53.4,31.5,30.00,SW,230,8.0,24.0,43,0.00,,,0.00,536.0,meteohub,2013-03-29 20:08:00,
2013-03-29 16:13:00,53.2,31.3,30.00,WSW,258,14.0,24.0,43,0.00,,,0.00,294.0,meteohub,2013-03-29 20:13:00,
2013-03-29 16:18:00,53.1,31.1,30.00,SSW,198,6.0,24.0,43,0.00,,,0.00,204.0,meteohub,2013-03-29 20:18:00,
2013-03-29 16:23:00,53.1,31.6,30.00,SW,223,7.0,22.0,44,0.00,,,0.00,246.0,meteohub,2013-03-29 20:23:00,
2013-03-29 16:29:00,53.2,31.3,30.00,SSW,194,4.0,22.0,43,0.00,,,0.00,202.0,meteohub,2013-03-29 20:29:00,
2013-03-29 16:34:00,54.1,32.2,30.00,WSW,246,8.0,22.0,43,0.00,,,0.00,612.0,meteohub,2013-03-29 20:34:00,
2013-03-29 16:39:00,53.1,31.1,30.00,SSW,203,10.0,13.0,43,0.00,,,0.00,573.0,meteohub,2013-03-29 20:39:00,
2013-03-29 16:44:00,53.1,32.4,30.00,West,277,12.0,23.0,45,0.00,,,0.00,568.0,meteohub,2013-03-29 20:44:00,
2013-03-29 16:49:00,53.2,31.8,30.00,SSW,203,8.0,23.0,44,0.00,,,0.00,550.0,meteohub,2013-03-29 20:49:00,
2013-03-29 16:54:00,53.1,31.6,30.00,WSW,242,11.0,23.0,44,0.00,,,0.00,510.0,meteohub,2013-03-29 20:54:00,
2013-03-29 16:59:00,53.1,32.4,29.99,SW,222,14.0,22.0,45,0.00,,,0.00,508.0,meteohub,2013-03-29 20:59:00,
2013-03-29 17:04:00,52.9,32.2,30.00,SW,227,17.0,22.0,45,0.00,,,0.00,446.0,meteohub,2013-03-29 21:04:00,
2013-03-29 17:09:00,52.5,31.8,30.00,West,281,9.0,22.0,45,0.00,,,0.00,418.0,meteohub,2013-03-29 21:09:00,
2013-03-29 17:14:00,52.5,31.8,29.99,SW,215,10.0,23.0,45,0.00,,,0.00,404.0,meteohub,2013-03-29 21:14:00,
2013-03-29 17:19:00,52.2,32.0,30.00,SW,229,7.0,23.0,46,0.00,,,0.00,265.0,meteohub,2013-03-29 21:19:00,
2013-03-29 17:24:00,52.3,32.2,30.00,WSW,248,13.0,20.0,46,0.00,,,0.00,373.0,meteohub,2013-03-29 21:24:00,
2013-03-29 17:29:00,52.2,32.0,30.00,SW,229,10.0,20.0,46,0.00,,,0.00,114.0,meteohub,2013-03-29 21:29:00,
2013-03-29 17:35:00,51.1,32.0,30.00,South,190,4.0,17.0,48,0.00,,,0.00,109.0,meteohub,2013-03-29 21:35:00,
2013-03-29 17:40:00,50.9,32.4,30.00,SSW,208,6.0,16.0,49,0.00,,,0.00,104.0,meteohub,2013-03-29 21:40:00,
2013-03-29 17:45:00,50.7,32.7,30.00,SW,215,5.0,14.0,50,0.00,,,0.00,97.0,meteohub,2013-03-29 21:45:00,
2013-03-29 17:50:00,50.5,32.5,30.00,SW,220,1.0,14.0,50,0.00,,,0.00,86.0,meteohub,2013-03-29 21:50:00,
2013-03-29 17:55:00,50.7,33.3,30.00,SW,218,4.0,10.0,51,0.00,,,0.00,81.0,meteohub,2013-03-29 21:55:00,
2013-03-29 18:00:00,50.7,33.3,30.00,SW,231,3.0,10.0,51,0.00,,,0.00,69.0,meteohub,2013-03-29 22:00:00,
2013-03-29 18:05:00,50.9,33.4,30.00,SW,214,5.0,7.0,51,0.00,,,0.00,62.0,meteohub,2013-03-29 22:05:00,
2013-03-29 18:10:00,50.9,33.4,30.00,SSW,210,5.0,6.0,51,0.00,,,0.00,56.0,meteohub,2013-03-29 22:10:00,
2013-03-29 18:15:00,51.1,33.1,30.00,SSW,213,0.0,5.0,50,0.00,,,0.00,51.0,meteohub,2013-03-29 22:15:00,
2013-03-29 18:21:00,51.4,32.9,30.00,SSW,213,0.0,5.0,49,0.00,,,0.00,51.0,meteohub,2013-03-29 22:21:00,
2013-03-29 18:26:00,51.8,33.3,30.00,South,190,2.0,5.0,49,0.00,,,0.00,46.0,meteohub,2013-03-29 22:26:00,
2013-03-29 18:31:00,52.9,32.2,30.00,NNW,340,0.0,7.0,45,0.00,,,0.00,33.0,meteohub,2013-03-29 22:31:00,
2013-03-29 18:36:00,53.6,31.6,30.01,North,9,3.0,15.0,43,0.00,,,0.00,25.0,meteohub,2013-03-29 22:36:00,
2013-03-29 18:42:00,53.8,31.3,30.01,NNW,345,5.0,15.0,42,0.00,,,0.00,21.0,meteohub,2013-03-29 22:42:00,
2013-03-29 18:47:00,53.6,31.6,30.01,NW,319,4.0,15.0,43,0.00,,,0.00,16.0,meteohub,2013-03-29 22:47:00,
2013-03-29 18:52:00,53.6,31.1,30.01,NW,322,4.0,13.0,42,0.00,,,0.00,12.0,meteohub,2013-03-29 22:52:00,
2013-03-29 18:57:00,53.4,30.9,30.01,NNW,327,9.0,11.0,42,0.00,,,0.00,11.0,meteohub,2013-03-29 22:57:00,
2013-03-29 19:02:00,53.2,30.7,30.01,NNW,328,2.0,13.0,42,0.00,,,0.00,7.0,meteohub,2013-03-29 23:02:00,
2013-03-29 19:07:00,53.1,31.1,30.01,North,350,5.0,13.0,43,0.00,,,0.00,0.0,meteohub,2013-03-29 23:07:00,
2013-03-29 19:12:00,53.1,31.1,30.01,NNW,343,6.0,13.0,43,0.00,,,0.00,0.0,meteohub,2013-03-29 23:12:00,
2013-03-29 19:17:00,52.9,30.9,30.01,NNW,328,7.0,9.0,43,0.00,,,0.00,0.0,meteohub,2013-03-29 23:17:00,
2013-03-29 19:22:00,52.7,31.5,30.01,NW,315,8.0,12.0,44,0.00,,,0.00,0.0,meteohub,2013-03-29 23:22:00,
2013-03-29 19:28:00,52.3,31.1,30.01,NW,321,7.0,12.0,44,0.00,,,0.00,0.0,meteohub,2013-03-29 23:28:00,
2013-03-29 19:33:00,52.3,31.1,30.01,North,355,0.0,13.0,44,0.00,,,0.00,0.0,meteohub,2013-03-29 23:33:00,
2013-03-29 19:38:00,52.2,30.9,30.02,NW,320,10.0,13.0,44,0.00,,,0.00,0.0,meteohub,2013-03-29 23:38:00,
2013-03-29 19:43:00,51.6,30.9,30.03,NNW,328,17.0,19.0,45,0.00,,,0.00,0.0,meteohub,2013-03-29 23:43:00,
2013-03-29 19:48:00,51.3,30.6,30.03,NW,315,11.0,21.0,45,0.00,,,0.00,0.0,meteohub,2013-03-29 23:48:00,
2013-03-29 19:53:00,50.7,30.2,30.03,North,355,11.0,21.0,45,0.00,,,0.00,0.0,meteohub,2013-03-29 23:53:00,
2013-03-29 19:58:00,50.4,30.4,30.03,NNW,329,11.0,21.0,46,0.00,,,0.00,0.0,meteohub,2013-03-29 23:58:00,
2013-03-29 20:03:00,50.2,30.2,30.04,NW,325,8.0,22.0,46,0.00,,,0.00,0.0,meteohub,2013-03-30 00:03:00,
2013-03-29 20:08:00,49.8,29.8,30.04,NW,321,20.0,24.0,46,0.00,,,0.00,0.0,meteohub,2013-03-30 00:08:00,
2013-03-29 20:13:00,49.6,29.1,30.04,NNW,342,9.0,24.0,45,0.00,,,0.00,0.0,meteohub,2013-03-30 00:13:00,
2013-03-29 20:18:00,49.5,28.9,30.04,NW,313,14.0,24.0,45,0.00,,,0.00,0.0,meteohub,2013-03-30 00:18:00,
2013-03-29 20:23:00,49.3,28.8,30.04,NNW,332,6.0,24.0,45,0.00,,,0.00,0.0,meteohub,2013-03-30 00:23:00,
2013-03-29 20:29:00,48.9,28.6,30.04,NNW,343,10.0,19.0,45,0.00,,,0.00,0.0,meteohub,2013-03-30 00:29:00,
2013-03-29 20:34:00,48.9,29.1,30.04,NW,313,12.0,19.0,46,0.00,,,0.00,0.0,meteohub,2013-03-30 00:34:00,
2013-03-29 20:39:00,48.7,28.9,30.05,NNW,338,7.0,19.0,46,0.00,,,0.00,0.0,meteohub,2013-03-30 00:39:00,
2013-03-29 20:44:00,48.6,29.3,30.05,NW,325,12.0,19.0,47,0.00,,,0.00,0.0,meteohub,2013-03-30 00:44:00,
2013-03-29 20:49:00,48.4,29.1,30.05,NNW,343,8.0,19.0,47,0.00,,,0.00,0.0,meteohub,2013-03-30 00:49:00,
2013-03-29 20:54:00,48.2,29.5,30.05,NW,313,6.0,19.0,48,0.00,,,0.00,0.0,meteohub,2013-03-30 00:54:00,
2013-03-29 20:59:00,48.0,29.3,30.05,NNW,330,6.0,19.0,48,0.00,,,0.00,0.0,meteohub,2013-03-30 00:59:00,
2013-03-29 21:05:00,47.8,29.1,30.06,WNW,284,11.0,15.0,48,0.00,,,0.00,0.0,meteohub,2013-03-30 01:05:00,
2013-03-29 21:10:00,47.8,29.1,30.06,North,0,7.0,15.0,48,0.00,,,0.00,0.0,meteohub,2013-03-30 01:10:00,
2013-03-29 21:15:00,47.8,29.7,30.06,WNW,302,12.0,16.0,49,0.00,,,0.00,0.0,meteohub,2013-03-30 01:15:00,
2013-03-29 21:20:00,47.8,29.7,30.06,North,355,7.0,19.0,49,0.00,,,0.00,0.0,meteohub,2013-03-30 01:20:00,
2013-03-29 21:25:00,47.7,29.5,30.06,NNW,342,8.0,19.0,49,0.00,,,0.00,0.0,meteohub,2013-03-30 01:25:00,
2013-03-29 21:30:00,47.7,30.0,30.06,North,355,5.0,17.0,50,0.00,,,0.00,0.0,meteohub,2013-03-30 01:30:00,
2013-03-29 21:36:00,47.7,30.0,30.07,WNW,299,13.0,15.0,50,0.00,,,0.00,0.0,meteohub,2013-03-30 01:36:00,
2013-03-29 21:41:00,47.5,29.8,30.06,NNW,348,6.0,15.0,50,0.00,,,0.00,0.0,meteohub,2013-03-30 01:41:00,
2013-03-29 21:46:00,47.5,30.2,30.07,NNW,338,8.0,15.0,51,0.00,,,0.00,0.0,meteohub,2013-03-30 01:46:00,
2013-03-29 21:51:00,47.5,30.2,30.07,NNW,338,7.0,13.0,51,0.00,,,0.00,0.0,meteohub,2013-03-30 01:51:00,
2013-03-29 21:56:00,47.3,30.0,30.07,NW,323,2.0,14.0,51,0.00,,,0.00,0.0,meteohub,2013-03-30 01:56:00,
2013-03-29 22:01:00,47.1,29.8,30.07,NW,308,17.0,17.0,51,0.00,,,0.00,0.0,meteohub,2013-03-30 02:01:00,
2013-03-29 22:06:00,47.1,30.4,30.07,NW,318,6.0,17.0,52,0.00,,,0.00,0.0,meteohub,2013-03-30 02:06:00,
2013-03-29 22:11:00,47.1,30.4,30.07,NNW,336,5.0,17.0,52,0.00,,,0.00,0.0,meteohub,2013-03-30 02:11:00,
2013-03-29 22:16:00,46.9,30.7,30.07,NNW,329,9.0,17.0,53,0.00,,,0.00,0.0,meteohub,2013-03-30 02:16:00,
2013-03-29 22:21:00,46.9,30.7,30.07,NW,314,5.0,14.0,53,0.00,,,0.00,0.0,meteohub,2013-03-30 02:21:00,
2013-03-29 22:27:00,46.8,30.6,30.07,NNW,348,6.0,15.0,53,0.00,,,0.00,0.0,meteohub,2013-03-30 02:27:00,
2013-03-29 22:32:00,46.8,30.6,30.07,North,351,8.0,15.0,53,0.00,,,0.00,0.0,meteohub,2013-03-30 02:32:00,
2013-03-29 22:37:00,46.8,30.6,30.07,NW,325,8.0,14.0,53,0.00,,,0.00,0.0,meteohub,2013-03-30 02:37:00,
2013-03-29 22:42:00,46.6,30.7,30.07,NNE,14,6.0,18.0,54,0.00,,,0.00,0.0,meteohub,2013-03-30 02:42:00,
2013-03-29 22:48:00,46.6,30.7,30.07,North,9,7.0,18.0,54,0.00,,,0.00,0.0,meteohub,2013-03-30 02:48:00,
2013-03-29 22:53:00,46.6,31.3,30.07,NW,315,9.0,18.0,55,0.00,,,0.00,0.0,meteohub,2013-03-30 02:53:00,
2013-03-29 22:58:00,46.4,30.7,30.07,NW,314,11.0,14.0,54,0.00,,,0.00,0.0,meteohub,2013-03-30 02:58:00,
2013-03-29 23:03:00,46.2,30.9,30.07,North,10,3.0,14.0,55,0.00,,,0.00,0.0,meteohub,2013-03-30 03:03:00,
2013-03-29 23:08:00,46.2,30.9,30.07,WNW,283,11.0,14.0,55,0.00,,,0.00,0.0,meteohub,2013-03-30 03:08:00,
2013-03-29 23:13:00,46.0,30.7,30.07,NW,319,9.0,14.0,55,0.00,,,0.00,0.0,meteohub,2013-03-30 03:13:00,
2013-03-29 23:18:00,45.9,30.6,30.07,NW,319,7.0,13.0,55,0.00,,,0.00,0.0,meteohub,2013-03-30 03:18:00,
2013-03-29 23:23:00,45.9,30.6,30.07,NW,307,2.0,12.0,55,0.00,,,0.00,0.0,meteohub,2013-03-30 03:23:00,
2013-03-29 23:29:00,45.7,30.9,30.08,WNW,286,4.0,11.0,56,0.00,,,0.00,0.0,meteohub,2013-03-30 03:29:00,
2013-03-29 23:34:00,45.3,30.6,30.08,NNW,327,8.0,13.0,56,0.00,,,0.00,0.0,meteohub,2013-03-30 03:34:00,
2013-03-29 23:39:00,45.3,30.9,30.08,NNW,338,7.0,13.0,57,0.00,,,0.00,0.0,meteohub,2013-03-30 03:39:00,
2013-03-29 23:44:00,45.3,30.9,30.08,NW,313,6.0,13.0,57,0.00,,,0.00,0.0,meteohub,2013-03-30 03:44:00,
2013-03-29 23:49:00,45.1,30.7,30.08,WNW,298,6.0,13.0,57,0.00,,,0.00,0.0,meteohub,2013-03-30 03:49:00,
2013-03-29 23:54:00,45.1,30.7,30.08,NW,316,9.0,13.0,57,0.00,,,0.00,0.0,meteohub,2013-03-30 03:54:00,
2013-03-29 23:59:00,45.1,30.7,30.08,WNW,299,5.0,10.0,57,0.00,,,0.00,0.0,meteohub,2013-03-30 03:59:00,